Time,TemperatureF,DewpointF,PressureIn,WindDirection,WindDirectionDegrees,WindSpeedMPH,WindSpeedGustMPH,Humidity,HourlyPrecipIn,Conditions,Clouds,dailyrainin,SoftwareType,DateUTC
2013-03-06 00:02:00,46.0,43.8,29.89,South,188,0.0,0.0,92,0.03,,---,0.00,VWS V14.01,2013-03-06 08:02:00,
2013-03-06 00:07:00,46.0,43.8,29.89,South,188,0.0,0.0,92,0.02,,---,0.00,VWS V14.01,2013-03-06 08:07:00,
2013-03-06 00:12:00,46.0,43.8,29.89,South,188,0.0,0.0,92,0.02,,---,0.00,VWS V14.01,2013-03-06 08:12:00,
2013-03-06 00:17:00,46.0,43.8,29.89,South,188,0.0,0.0,92,0.02,,---,0.00,VWS V14.01,2013-03-06 08:17:00,
2013-03-06 00:22:00,46.0,43.8,29.89,South,188,0.0,0.0,92,0.02,,---,0.00,VWS V14.01,2013-03-06 08:22:00,
2013-03-06 00:27:00,46.0,43.8,29.89,South,188,0.0,0.0,92,0.02,,---,0.00,VWS V14.01,2013-03-06 08:27:00,
2013-03-06 00:32:00,46.0,43.8,29.89,South,188,0.0,0.0,92,0.00,,---,0.00,VWS V14.01,2013-03-06 08:32:00,
2013-03-06 00:37:00,46.1,43.9,29.89,ENE,66,0.0,2.0,92,0.00,,---,0.00,VWS V14.01,2013-03-06 08:37:00,
2013-03-06 00:42:00,46.2,44.0,29.89,ENE,66,0.0,2.0,92,0.01,,---,0.01,VWS V14.01,2013-03-06 08:42:00,
2013-03-06 00:47:00,46.4,44.2,29.88,ENE,66,0.0,2.0,92,0.01,,---,0.01,VWS V14.01,2013-03-06 08:47:00,
2013-03-06 00:52:00,46.5,44.3,29.88,ENE,66,0.0,2.0,92,0.01,,---,0.01,VWS V14.01,2013-03-06 08:52:00,
2013-03-06 00:57:00,46.5,44.3,29.88,West,277,0.0,4.0,92,0.01,,---,0.01,VWS V14.01,2013-03-06 08:57:00,
2013-03-06 01:02:00,46.8,44.3,29.88,ESE,123,0.0,2.0,91,0.01,,---,0.01,VWS V14.01,2013-03-06 09:02:00,
2013-03-06 01:07:00,47.3,43.9,29.88,NNE,18,0.0,5.0,88,0.01,,---,0.01,VWS V14.01,2013-03-06 09:07:00,
2013-03-06 01:12:00,47.7,43.7,29.88,NNW,342,0.0,5.0,86,0.01,,---,0.01,VWS V14.01,2013-03-06 09:12:00,
2013-03-06 01:17:00,48.2,43.6,29.88,ESE,112,4.0,8.0,84,0.01,,---,0.01,VWS V14.01,2013-03-06 09:17:00,
2013-03-06 01:22:00,48.5,43.6,29.88,NNE,13,0.0,8.0,83,0.01,,---,0.01,VWS V14.01,2013-03-06 09:22:00,
2013-03-06 01:27:00,48.5,43.6,29.88,ENE,59,0.0,8.0,83,0.01,,---,0.01,VWS V14.01,2013-03-06 09:27:00,
2013-03-06 01:32:00,48.5,43.6,29.88,ENE,59,0.0,0.0,83,0.01,,---,0.01,VWS V14.01,2013-03-06 09:32:00,
2013-03-06 01:37:00,48.5,43.6,29.88,NNW,348,0.0,4.0,83,0.01,,---,0.01,VWS V14.01,2013-03-06 09:37:00,
2013-03-06 01:42:00,48.5,43.6,29.88,North,355,0.0,5.0,83,0.01,,---,0.01,VWS V14.01,2013-03-06 09:42:00,
2013-03-06 01:47:00,48.8,43.6,29.88,West,279,0.0,5.0,82,0.01,,---,0.01,VWS V14.01,2013-03-06 09:47:00,
2013-03-06 01:52:00,48.9,43.3,29.88,NNE,15,0.0,5.0,81,0.01,,---,0.01,VWS V14.01,2013-03-06 09:52:00,
2013-03-06 01:57:00,49.2,43.0,29.88,NNE,24,1.0,5.0,79,0.01,,---,0.01,VWS V14.01,2013-03-06 09:57:00,
2013-03-06 02:02:00,49.4,43.2,29.88,ENE,65,0.0,0.0,79,0.00,,---,0.01,VWS V14.01,2013-03-06 10:02:00,
2013-03-06 02:07:00,49.5,42.9,29.88,NNE,25,0.0,6.0,78,0.00,,---,0.01,VWS V14.01,2013-03-06 10:07:00,
2013-03-06 02:13:00,49.6,43.0,29.88,NE,50,8.0,8.0,78,0.00,,---,0.01,VWS V14.01,2013-03-06 10:13:00,
2013-03-06 02:18:00,49.8,43.2,29.88,NW,315,0.0,8.0,78,0.00,,---,0.01,VWS V14.01,2013-03-06 10:18:00,
2013-03-06 02:23:00,49.8,43.2,29.88,North,349,0.0,8.0,78,0.00,,---,0.01,VWS V14.01,2013-03-06 10:23:00,
2013-03-06 02:28:00,49.6,43.4,29.88,North,5,5.0,8.0,79,0.00,,---,0.01,VWS V14.01,2013-03-06 10:28:00,
2013-03-06 02:33:00,49.6,43.4,29.88,North,355,1.0,5.0,79,0.00,,---,0.01,VWS V14.01,2013-03-06 10:33:00,
2013-03-06 02:38:00,49.6,43.7,29.88,South,178,0.0,5.0,80,0.00,,---,0.01,VWS V14.01,2013-03-06 10:38:00,
2013-03-06 02:43:00,49.5,43.9,29.88,North,11,0.0,5.0,81,0.00,,---,0.01,VWS V14.01,2013-03-06 10:43:00,
2013-03-06 02:48:00,49.2,44.0,29.89,SW,232,0.0,5.0,82,0.01,,---,0.02,VWS V14.01,2013-03-06 10:48:00,
2013-03-06 02:53:00,49.1,44.2,29.89,NNE,15,2.0,5.0,83,0.01,,---,0.02,VWS V14.01,2013-03-06 10:53:00,
2013-03-06 02:58:00,48.8,44.2,29.89,NNE,15,0.0,5.0,84,0.01,,---,0.02,VWS V14.01,2013-03-06 10:58:00,
2013-03-06 03:03:00,48.6,44.3,29.89,West,271,0.0,0.0,85,0.03,,---,0.04,VWS V14.01,2013-03-06 11:03:00,
2013-03-06 03:08:00,48.5,44.5,29.89,NW,312,0.0,3.0,86,0.04,,---,0.05,VWS V14.01,2013-03-06 11:08:00,
2013-03-06 03:13:00,48.3,44.6,29.89,West,267,0.0,5.0,87,0.07,,---,0.08,VWS V14.01,2013-03-06 11:13:00,
2013-03-06 03:18:00,48.2,44.8,29.90,WNW,296,0.0,5.0,88,0.09,,---,0.10,VWS V14.01,2013-03-06 11:18:00,
2013-03-06 03:23:00,48.0,44.6,29.90,WNW,296,0.0,5.0,88,0.12,,---,0.13,VWS V14.01,2013-03-06 11:23:00,
2013-03-06 03:28:00,47.9,44.8,29.90,WNW,296,0.0,5.0,89,0.16,,---,0.17,VWS V14.01,2013-03-06 11:28:00,
2013-03-06 03:33:00,47.7,44.6,29.90,NNE,29,0.0,0.0,89,0.16,,---,0.17,VWS V14.01,2013-03-06 11:33:00,
2013-03-06 03:38:00,47.6,44.8,29.90,NNW,344,0.0,1.0,90,0.16,,---,0.17,VWS V14.01,2013-03-06 11:38:00,
2013-03-06 03:43:00,47.6,44.8,29.90,SSW,197,0.0,1.0,90,0.16,,---,0.17,VWS V14.01,2013-03-06 11:43:00,
2013-03-06 03:48:00,47.6,45.1,29.90,WNW,288,2.0,5.0,91,0.16,,---,0.17,VWS V14.01,2013-03-06 11:48:00,
2013-03-06 03:53:00,47.6,45.1,29.90,WNW,288,0.0,5.0,91,0.16,,---,0.17,VWS V14.01,2013-03-06 11:53:00,
2013-03-06 03:59:00,47.6,45.1,29.90,WNW,288,0.0,5.0,91,0.19,,---,0.20,VWS V14.01,2013-03-06 11:59:00,
2013-03-06 04:04:00,47.7,45.2,29.91,WNW,288,0.0,0.0,91,0.18,,---,0.22,VWS V14.01,2013-03-06 12:04:00,
2013-03-06 04:09:00,47.7,45.5,29.91,WNW,288,0.0,0.0,92,0.19,,---,0.23,VWS V14.01,2013-03-06 12:09:00,
2013-03-06 04:14:00,47.7,45.5,29.91,WNW,288,0.0,1.0,92,0.19,,---,0.23,VWS V14.01,2013-03-06 12:14:00,
2013-03-06 04:19:00,47.9,45.7,29.91,WNW,297,0.0,1.0,92,0.19,,---,0.23,VWS V14.01,2013-03-06 12:19:00,
2013-03-06 04:24:00,47.9,45.7,29.91,ENE,62,0.0,2.0,92,0.19,,---,0.23,VWS V14.01,2013-03-06 12:24:00,
2013-03-06 04:29:00,47.9,45.7,29.91,North,360,0.0,2.0,92,0.19,,---,0.23,VWS V14.01,2013-03-06 12:29:00,
2013-03-06 04:34:00,48.0,45.8,29.91,North,360,0.0,0.0,92,0.06,,---,0.23,VWS V14.01,2013-03-06 12:34:00,
2013-03-06 04:39:00,48.0,46.1,29.91,North,360,0.0,0.0,93,0.06,,---,0.23,VWS V14.01,2013-03-06 12:39:00,
2013-03-06 04:44:00,48.0,46.1,29.91,East,82,0.0,4.0,93,0.06,,---,0.23,VWS V14.01,2013-03-06 12:44:00,
2013-03-06 04:49:00,48.0,46.1,29.91,East,82,0.0,4.0,93,0.06,,---,0.23,VWS V14.01,2013-03-06 12:49:00,
2013-03-06 04:54:00,48.2,46.3,29.91,WNW,300,0.0,8.0,93,0.10,,---,0.27,VWS V14.01,2013-03-06 12:54:00,
2013-03-06 04:59:00,48.0,46.1,29.91,West,280,0.0,11.0,93,0.23,,---,0.40,VWS V14.01,2013-03-06 12:59:00,
2013-03-06 05:04:00,48.0,46.1,29.93,West,280,0.0,1.0,93,0.20,,---,0.42,VWS V14.01,2013-03-06 13:04:00,
2013-03-06 05:09:00,48.0,46.1,29.93,NW,304,1.0,4.0,93,0.22,,---,0.44,VWS V14.01,2013-03-06 13:09:00,
2013-03-06 05:14:00,48.0,46.4,29.93,South,190,0.0,4.0,94,0.26,,---,0.48,VWS V14.01,2013-03-06 13:14:00,
2013-03-06 05:19:00,48.3,46.7,29.93,WSW,245,3.0,7.0,94,0.27,,---,0.49,VWS V14.01,2013-03-06 13:19:00,
2013-03-06 05:24:00,48.6,47.0,29.93,SSW,211,0.0,7.0,94,0.28,,---,0.50,VWS V14.01,2013-03-06 13:24:00,
2013-03-06 05:29:00,48.6,47.0,29.93,SSW,206,0.0,7.0,94,0.29,,---,0.51,VWS V14.01,2013-03-06 13:29:00,
2013-03-06 05:34:00,48.8,47.4,29.93,WSW,245,0.0,3.0,95,0.30,,---,0.53,VWS V14.01,2013-03-06 13:34:00,
2013-03-06 05:39:00,48.9,47.5,29.93,SSW,198,0.0,5.0,95,0.31,,---,0.54,VWS V14.01,2013-03-06 13:39:00,
2013-03-06 05:44:00,48.9,47.5,29.93,SSW,198,0.0,5.0,95,0.31,,---,0.54,VWS V14.01,2013-03-06 13:44:00,
2013-03-06 05:49:00,48.9,47.5,29.94,SW,219,0.0,5.0,95,0.31,,---,0.54,VWS V14.01,2013-03-06 13:49:00,
2013-03-06 05:54:00,48.9,47.5,29.94,SW,219,0.0,5.0,95,0.31,,---,0.54,VWS V14.01,2013-03-06 13:54:00,
2013-03-06 05:59:00,48.8,47.4,29.94,SSW,200,0.0,5.0,95,0.31,,---,0.54,VWS V14.01,2013-03-06 13:59:00,
2013-03-06 06:04:00,48.6,47.2,29.94,SSW,200,0.0,0.0,95,0.13,,---,0.54,VWS V14.01,2013-03-06 14:04:00,
2013-03-06 06:10:00,48.6,47.2,29.94,WSW,254,0.0,3.0,95,0.13,,---,0.54,VWS V14.01,2013-03-06 14:10:00,
2013-03-06 06:15:00,48.6,47.2,29.94,SSW,192,5.0,5.0,95,0.13,,---,0.54,VWS V14.01,2013-03-06 14:15:00,
2013-03-06 06:20:00,48.6,47.2,29.94,SSE,166,5.0,6.0,95,0.13,,---,0.54,VWS V14.01,2013-03-06 14:20:00,
2013-03-06 06:25:00,48.8,47.7,29.94,SSE,163,0.0,8.0,96,0.13,,---,0.54,VWS V14.01,2013-03-06 14:25:00,
2013-03-06 06:30:00,48.8,47.4,29.94,SSW,202,0.0,8.0,95,0.13,,---,0.54,VWS V14.01,2013-03-06 14:30:00,
2013-03-06 06:35:00,48.9,47.8,29.96,South,175,0.0,5.0,96,0.02,,---,0.55,VWS V14.01,2013-03-06 14:35:00,
2013-03-06 06:40:00,48.9,47.8,29.96,SSW,205,0.0,6.0,96,0.02,,---,0.55,VWS V14.01,2013-03-06 14:40:00,
2013-03-06 06:45:00,48.9,47.8,29.96,SSW,211,0.0,6.0,96,0.02,,---,0.55,VWS V14.01,2013-03-06 14:45:00,
2013-03-06 06:50:00,49.1,48.0,29.96,South,184,0.0,7.0,96,0.02,,---,0.55,VWS V14.01,2013-03-06 14:50:00,
2013-03-06 06:55:00,49.1,48.0,29.96,SSW,201,2.0,7.0,96,0.02,,---,0.55,VWS V14.01,2013-03-06 14:55:00,
2013-03-06 07:00:00,49.2,48.1,29.96,SSW,202,0.0,7.0,96,0.02,,---,0.55,VWS V14.01,2013-03-06 15:00:00,
2013-03-06 07:05:00,49.2,48.1,29.97,SSW,211,2.0,5.0,96,0.01,,---,0.55,VWS V14.01,2013-03-06 15:05:00,
2013-03-06 07:10:00,49.2,48.1,29.97,SSW,200,0.0,5.0,96,0.01,,---,0.55,VWS V14.01,2013-03-06 15:10:00,
2013-03-06 07:15:00,49.4,48.3,29.97,SSW,209,0.0,5.0,96,0.01,,---,0.55,VWS V14.01,2013-03-06 15:15:00,
2013-03-06 07:20:00,49.4,48.3,29.98,SSW,209,1.0,5.0,96,0.01,,---,0.55,VWS V14.01,2013-03-06 15:20:00,
2013-03-06 07:25:00,49.4,48.3,29.98,SW,223,0.0,5.0,96,0.01,,---,0.55,VWS V14.01,2013-03-06 15:25:00,
2013-03-06 07:30:00,49.4,48.0,29.98,SSW,205,0.0,5.0,95,0.01,,---,0.55,VWS V14.01,2013-03-06 15:30:00,
2013-03-06 07:35:00,49.4,48.0,29.99,WNW,283,0.0,3.0,95,0.00,,---,0.55,VWS V14.01,2013-03-06 15:35:00,
2013-03-06 07:40:00,49.5,48.1,29.99,WSW,240,0.0,3.0,95,0.00,,---,0.55,VWS V14.01,2013-03-06 15:40:00,
2013-03-06 07:45:00,49.6,48.2,29.99,SW,236,0.0,3.0,95,0.00,,---,0.55,VWS V14.01,2013-03-06 15:45:00,
2013-03-06 07:50:00,49.8,48.4,29.99,WSW,237,0.0,3.0,95,0.00,,---,0.55,VWS V14.01,2013-03-06 15:50:00,
2013-03-06 07:55:00,49.8,48.4,29.99,WSW,258,0.0,6.0,95,0.00,,---,0.55,VWS V14.01,2013-03-06 15:55:00,
2013-03-06 08:00:00,49.8,48.4,29.99,WSW,258,0.0,6.0,95,0.00,,---,0.55,VWS V14.01,2013-03-06 16:00:00,
2013-03-06 08:05:00,49.8,48.4,30.00,WSW,258,0.0,0.0,95,0.00,,---,0.55,VWS V14.01,2013-03-06 16:05:00,
2013-03-06 08:11:00,49.9,48.5,30.00,WSW,258,0.0,0.0,95,0.00,,---,0.55,VWS V14.01,2013-03-06 16:11:00,
2013-03-06 08:15:00,49.9,48.2,30.00,WSW,258,2.0,4.0,94,0.00,,---,0.55,VWS V14.01,2013-03-06 16:15:00,
2013-03-06 08:21:00,49.8,48.2,30.01,WSW,258,0.0,4.0,94,0.00,,---,0.55,VWS V14.01,2013-03-06 16:21:00,
2013-03-06 08:26:00,49.8,48.2,30.01,WSW,258,0.0,4.0,94,0.00,,---,0.55,VWS V14.01,2013-03-06 16:26:00,
2013-03-06 08:30:00,50.1,48.4,30.01,WSW,258,0.0,4.0,94,0.00,,---,0.55,VWS V14.01,2013-03-06 16:30:00,
2013-03-06 08:36:00,50.4,48.7,30.02,WSW,258,0.0,0.0,94,0.00,,---,0.55,VWS V14.01,2013-03-06 16:36:00,
2013-03-06 08:41:00,50.5,48.8,30.02,WSW,258,0.0,0.0,94,0.00,,---,0.55,VWS V14.01,2013-03-06 16:41:00,
2013-03-06 08:46:00,50.5,48.6,30.02,WSW,258,0.0,3.0,93,0.00,,---,0.55,VWS V14.01,2013-03-06 16:46:00,
2013-03-06 08:51:00,50.5,48.6,30.02,West,259,0.0,3.0,93,0.00,,---,0.55,VWS V14.01,2013-03-06 16:51:00,
2013-03-06 08:56:00,50.5,48.6,30.02,West,259,0.0,3.0,93,0.00,,---,0.55,VWS V14.01,2013-03-06 16:56:00,
2013-03-06 09:01:00,50.2,48.0,30.02,SW,227,0.0,4.0,92,0.00,,---,0.55,VWS V14.01,2013-03-06 17:01:00,
2013-03-06 09:06:00,49.9,47.1,30.02,SW,236,1.0,5.0,90,0.00,,---,0.55,VWS V14.01,2013-03-06 17:06:00,
2013-03-06 09:11:00,50.1,47.3,30.02,West,259,2.0,6.0,90,0.00,,---,0.55,VWS V14.01,2013-03-06 17:11:00,
2013-03-06 09:16:00,50.2,47.1,30.02,SW,230,5.0,6.0,89,0.00,,---,0.55,VWS V14.01,2013-03-06 17:16:00,
2013-03-06 09:21:00,50.5,47.1,30.03,SW,216,4.0,6.0,88,0.00,,---,0.55,VWS V14.01,2013-03-06 17:21:00,
2013-03-06 09:26:00,50.5,46.5,30.03,West,261,4.0,7.0,86,0.00,,---,0.55,VWS V14.01,2013-03-06 17:26:00,
2013-03-06 09:31:00,50.5,46.2,30.03,WSW,253,0.0,8.0,85,0.00,,---,0.55,VWS V14.01,2013-03-06 17:31:00,
2013-03-06 09:36:00,51.1,47.1,30.04,West,263,0.0,4.0,86,0.00,,---,0.55,VWS V14.01,2013-03-06 17:36:00,
2013-03-06 09:41:00,51.3,47.0,30.04,West,268,1.0,6.0,85,0.00,,---,0.55,VWS V14.01,2013-03-06 17:41:00,
2013-03-06 09:46:00,51.4,47.0,30.04,West,268,0.0,6.0,85,0.00,,---,0.55,VWS V14.01,2013-03-06 17:46:00,
2013-03-06 09:51:00,51.9,47.5,30.04,West,268,0.0,6.0,85,0.00,,---,0.55,VWS V14.01,2013-03-06 17:51:00,
2013-03-06 09:56:00,51.7,46.4,30.04,WNW,295,0.0,8.0,82,0.00,,---,0.55,VWS V14.01,2013-03-06 17:56:00,
2013-03-06 10:01:00,52.3,47.3,30.04,WNW,295,0.0,8.0,83,0.00,,---,0.55,VWS V14.01,2013-03-06 18:01:00,
2013-03-06 10:06:00,52.8,46.8,30.04,WNW,295,0.0,0.0,80,0.00,,---,0.55,VWS V14.01,2013-03-06 18:06:00,
2013-03-06 10:11:00,52.8,45.8,30.04,West,263,0.0,7.0,77,0.00,,---,0.55,VWS V14.01,2013-03-06 18:11:00,
2013-03-06 10:16:00,52.9,45.9,30.04,West,261,0.0,7.0,77,0.00,,---,0.55,VWS V14.01,2013-03-06 18:16:00,
2013-03-06 10:21:00,53.5,46.8,30.04,SW,222,0.0,7.0,78,0.00,,---,0.55,VWS V14.01,2013-03-06 18:21:00,
2013-03-06 10:26:00,53.8,46.8,30.04,SW,228,0.0,7.0,77,0.00,,---,0.55,VWS V14.01,2013-03-06 18:26:00,
2013-03-06 10:32:00,53.9,46.2,30.04,West,263,1.0,7.0,75,0.00,,---,0.55,VWS V14.01,2013-03-06 18:32:00,
2013-03-06 10:37:00,54.1,45.7,30.04,SSW,207,0.0,6.0,73,0.00,,---,0.55,VWS V14.01,2013-03-06 18:37:00,
2013-03-06 10:42:00,54.7,45.9,30.04,SSW,203,0.0,7.0,72,0.00,,---,0.55,VWS V14.01,2013-03-06 18:42:00,
2013-03-06 10:47:00,54.8,45.6,30.04,SSW,192,2.0,12.0,71,0.00,,---,0.55,VWS V14.01,2013-03-06 18:47:00,
2013-03-06 10:52:00,55.3,45.7,30.04,SSW,203,0.0,12.0,70,0.00,,---,0.55,VWS V14.01,2013-03-06 18:52:00,
2013-03-06 10:57:00,55.7,46.8,30.04,WNW,289,6.0,12.0,72,0.00,,---,0.55,VWS V14.01,2013-03-06 18:57:00,
2013-03-06 11:02:00,55.9,45.5,30.05,WNW,294,4.0,12.0,68,0.00,,---,0.55,VWS V14.01,2013-03-06 19:02:00,
2013-03-06 11:07:00,56.3,45.9,30.05,WSW,254,5.0,8.0,68,0.00,,---,0.55,VWS V14.01,2013-03-06 19:07:00,
2013-03-06 11:12:00,56.6,46.2,30.05,WSW,251,4.0,10.0,68,0.00,,---,0.55,VWS V14.01,2013-03-06 19:12:00,
2013-03-06 11:17:00,56.9,45.7,30.05,West,274,2.0,10.0,66,0.00,,---,0.55,VWS V14.01,2013-03-06 19:17:00,
2013-03-06 11:22:00,57.3,46.0,30.05,WSW,252,5.0,10.0,66,0.00,,---,0.55,VWS V14.01,2013-03-06 19:22:00,
2013-03-06 11:27:00,57.2,46.0,30.05,WSW,257,0.0,10.0,66,0.00,,---,0.55,VWS V14.01,2013-03-06 19:27:00,
2013-03-06 11:32:00,57.3,46.0,30.04,West,269,0.0,10.0,66,0.00,,---,0.55,VWS V14.01,2013-03-06 19:32:00,
2013-03-06 11:37:00,57.2,45.2,30.04,West,270,0.0,14.0,64,0.00,,---,0.55,VWS V14.01,2013-03-06 19:37:00,
2013-03-06 11:42:00,56.9,44.9,30.04,WSW,258,0.0,14.0,64,0.00,,---,0.55,VWS V14.01,2013-03-06 19:42:00,
2013-03-06 11:47:00,56.5,44.5,30.05,SSW,211,2.0,14.0,64,0.00,,---,0.55,VWS V14.01,2013-03-06 19:47:00,
2013-03-06 11:52:00,56.0,44.8,30.05,SW,234,8.0,14.0,66,0.00,,---,0.55,VWS V14.01,2013-03-06 19:52:00,
2013-03-06 11:57:00,56.0,44.0,30.05,WSW,244,4.0,14.0,64,0.00,,---,0.55,VWS V14.01,2013-03-06 19:57:00,
2013-03-06 12:02:00,56.6,45.0,30.04,West,269,4.0,14.0,65,0.00,,---,0.55,VWS V14.01,2013-03-06 20:02:00,
2013-03-06 12:07:00,57.2,45.2,30.04,West,279,3.0,9.0,64,0.00,,---,0.55,VWS V14.01,2013-03-06 20:07:00,
2013-03-06 12:12:00,57.8,45.3,30.04,West,264,3.0,9.0,63,0.00,,---,0.55,VWS V14.01,2013-03-06 20:12:00,
2013-03-06 12:17:00,58.1,45.2,30.04,SW,234,2.0,9.0,62,0.00,,---,0.55,VWS V14.01,2013-03-06 20:17:00,
2013-03-06 12:22:00,57.8,45.7,30.04,WNW,299,0.0,9.0,64,0.00,,---,0.55,VWS V14.01,2013-03-06 20:22:00,
2013-03-06 12:27:00,57.3,43.5,30.04,SW,214,3.0,9.0,60,0.00,,---,0.55,VWS V14.01,2013-03-06 20:27:00,
2013-03-06 12:33:00,56.7,44.3,30.03,West,281,0.0,0.0,63,0.00,,---,0.55,VWS V14.01,2013-03-06 20:33:00,
2013-03-06 12:38:00,57.3,45.2,30.03,West,273,0.0,9.0,64,0.00,,---,0.55,VWS V14.01,2013-03-06 20:38:00,
2013-03-06 12:43:00,58.0,45.1,30.03,WSW,250,5.0,9.0,62,0.00,,---,0.55,VWS V14.01,2013-03-06 20:43:00,
2013-03-06 12:48:00,58.0,45.1,30.03,WSW,246,3.0,9.0,62,0.00,,---,0.55,VWS V14.01,2013-03-06 20:48:00,
2013-03-06 12:53:00,58.0,43.8,30.03,SSW,209,0.0,9.0,59,0.00,,---,0.55,VWS V14.01,2013-03-06 20:53:00,
2013-03-06 12:58:00,57.0,41.9,30.03,SW,215,2.0,9.0,57,0.00,,---,0.55,VWS V14.01,2013-03-06 20:58:00,
2013-03-06 13:03:00,56.6,42.5,30.03,West,268,0.0,5.0,59,0.00,,---,0.55,VWS V14.01,2013-03-06 21:03:00,
2013-03-06 13:08:00,56.3,42.6,30.03,SSW,198,4.0,8.0,60,0.00,,---,0.55,VWS V14.01,2013-03-06 21:08:00,
2013-03-06 13:13:00,56.3,43.5,30.03,West,266,3.0,8.0,62,0.00,,---,0.55,VWS V14.01,2013-03-06 21:13:00,
2013-03-06 13:18:00,56.3,41.3,30.03,West,275,3.0,10.0,57,0.00,,---,0.55,VWS V14.01,2013-03-06 21:18:00,
2013-03-06 13:23:00,56.7,42.5,30.03,West,262,5.0,11.0,59,0.00,,---,0.55,VWS V14.01,2013-03-06 21:23:00,
2013-03-06 13:28:00,57.2,42.6,30.03,West,279,0.0,11.0,58,0.00,,---,0.55,VWS V14.01,2013-03-06 21:28:00,
2013-03-06 13:33:00,57.6,42.0,30.02,SW,236,0.0,6.0,56,0.00,,---,0.55,VWS V14.01,2013-03-06 21:33:00,
2013-03-06 13:38:00,58.0,42.9,30.02,WNW,286,2.0,7.0,57,0.00,,---,0.55,VWS V14.01,2013-03-06 21:38:00,
2013-03-06 13:43:00,58.1,42.5,30.02,WSW,247,4.0,8.0,56,0.00,,---,0.55,VWS V14.01,2013-03-06 21:43:00,
2013-03-06 13:48:00,57.5,41.5,30.02,SW,236,0.0,8.0,55,0.00,,---,0.55,VWS V14.01,2013-03-06 21:48:00,
2013-03-06 13:53:00,57.2,40.2,30.02,WSW,253,0.0,8.0,53,0.00,,---,0.55,VWS V14.01,2013-03-06 21:53:00,
2013-03-06 13:58:00,57.2,41.7,30.02,SSW,211,4.0,8.0,56,0.00,,---,0.55,VWS V14.01,2013-03-06 21:58:00,
2013-03-06 14:03:00,56.7,38.3,30.03,SW,223,0.0,0.0,50,0.00,,---,0.55,VWS V14.01,2013-03-06 22:03:00,
2013-03-06 14:08:00,56.7,39.3,30.03,SW,221,2.0,6.0,52,0.00,,---,0.55,VWS V14.01,2013-03-06 22:08:00,
2013-03-06 14:13:00,56.7,39.3,30.03,WSW,241,4.0,7.0,52,0.00,,---,0.55,VWS V14.01,2013-03-06 22:13:00,
2013-03-06 14:19:00,56.7,38.8,30.02,West,268,0.0,7.0,51,0.00,,---,0.55,VWS V14.01,2013-03-06 22:19:00,
2013-03-06 14:24:00,56.9,39.0,30.02,WSW,248,0.0,7.0,51,0.00,,---,0.55,VWS V14.01,2013-03-06 22:24:00,
2013-03-06 14:29:00,57.2,39.8,30.02,West,275,0.0,7.0,52,0.00,,---,0.55,VWS V14.01,2013-03-06 22:29:00,
2013-03-06 14:34:00,57.6,40.6,30.02,WNW,286,1.0,3.0,53,0.00,,---,0.55,VWS V14.01,2013-03-06 22:34:00,
2013-03-06 14:39:00,57.8,40.3,30.02,West,270,4.0,7.0,52,0.00,,---,0.55,VWS V14.01,2013-03-06 22:39:00,
2013-03-06 14:44:00,57.6,40.6,30.02,WNW,288,3.0,7.0,53,0.00,,---,0.55,VWS V14.01,2013-03-06 22:44:00,
2013-03-06 14:49:00,57.3,39.3,30.02,WSW,244,0.0,7.0,51,0.00,,---,0.55,VWS V14.01,2013-03-06 22:49:00,
2013-03-06 14:54:00,57.2,41.2,30.02,West,259,0.0,8.0,55,0.00,,---,0.55,VWS V14.01,2013-03-06 22:54:00,
2013-03-06 14:59:00,56.7,40.7,30.02,SW,229,0.0,8.0,55,0.00,,---,0.55,VWS V14.01,2013-03-06 22:59:00,
2013-03-06 15:04:00,56.6,40.6,30.02,West,260,0.0,1.0,55,0.00,,---,0.55,VWS V14.01,2013-03-06 23:04:00,
2013-03-06 15:09:00,56.5,41.5,30.02,West,280,0.0,8.0,57,0.00,,---,0.55,VWS V14.01,2013-03-06 23:09:00,
2013-03-06 15:14:00,56.5,41.0,30.02,West,275,4.0,9.0,56,0.00,,---,0.55,VWS V14.01,2013-03-06 23:14:00,
2013-03-06 15:19:00,56.0,41.9,30.03,SSW,205,0.0,9.0,59,0.00,,---,0.55,VWS V14.01,2013-03-06 23:19:00,
2013-03-06 15:24:00,56.0,42.3,30.03,WSW,242,0.0,9.0,60,0.00,,---,0.55,VWS V14.01,2013-03-06 23:24:00,
2013-03-06 15:29:00,55.9,42.7,30.03,WNW,284,5.0,9.0,61,0.00,,---,0.55,VWS V14.01,2013-03-06 23:29:00,
2013-03-06 15:34:00,55.6,42.4,30.02,WNW,292,3.0,5.0,61,0.00,,---,0.55,VWS V14.01,2013-03-06 23:34:00,
2013-03-06 15:39:00,55.3,42.5,30.02,WSW,253,4.0,5.0,62,0.00,,---,0.55,VWS V14.01,2013-03-06 23:39:00,
2013-03-06 15:44:00,55.0,42.2,30.02,West,259,4.0,8.0,62,0.00,,---,0.55,VWS V14.01,2013-03-06 23:44:00,
2013-03-06 15:49:00,54.7,42.8,30.02,WSW,249,4.0,8.0,64,0.00,,---,0.55,VWS V14.01,2013-03-06 23:49:00,
2013-03-06 15:54:00,54.5,42.6,30.02,West,269,5.0,8.0,64,0.00,,---,0.55,VWS V14.01,2013-03-06 23:54:00,
2013-03-06 15:59:00,54.2,42.7,30.02,WSW,253,3.0,8.0,65,0.00,,---,0.55,VWS V14.01,2013-03-06 23:59:00,
2013-03-06 16:04:00,54.1,42.6,30.02,WSW,246,1.0,5.0,65,0.00,,---,0.55,VWS V14.01,2013-03-07 00:04:00,
2013-03-06 16:10:00,53.9,42.8,30.02,West,261,5.0,8.0,66,0.00,,---,0.55,VWS V14.01,2013-03-07 00:10:00,
2013-03-06 16:14:00,53.6,42.5,30.02,West,269,0.0,8.0,66,0.00,,---,0.55,VWS V14.01,2013-03-07 00:14:00,
2013-03-06 16:20:00,53.5,42.8,30.01,West,261,1.0,8.0,67,0.00,,---,0.55,VWS V14.01,2013-03-07 00:20:00,
2013-03-06 16:25:00,53.3,43.0,30.01,WSW,253,1.0,8.0,68,0.00,,---,0.55,VWS V14.01,2013-03-07 00:25:00,
2013-03-06 16:30:00,53.2,43.3,30.01,WSW,248,2.0,8.0,69,0.00,,---,0.55,VWS V14.01,2013-03-07 00:30:00,
2013-03-06 16:35:00,53.2,43.7,30.01,WSW,257,0.0,1.0,70,0.00,,---,0.55,VWS V14.01,2013-03-07 00:35:00,
2013-03-06 16:40:00,53.2,43.7,30.01,WSW,242,2.0,5.0,70,0.00,,---,0.55,VWS V14.01,2013-03-07 00:40:00,
2013-03-06 16:45:00,53.2,44.0,30.01,West,263,2.0,5.0,71,0.00,,---,0.55,VWS V14.01,2013-03-07 00:45:00,
2013-03-06 16:50:00,53.1,44.0,30.01,WSW,242,3.0,6.0,71,0.00,,---,0.55,VWS V14.01,2013-03-07 00:50:00,
2013-03-06 16:55:00,53.1,44.0,30.01,WNW,290,0.0,6.0,71,0.00,,---,0.55,VWS V14.01,2013-03-07 00:55:00,
2013-03-06 17:00:00,52.9,43.8,30.01,West,270,0.0,6.0,71,0.00,,---,0.55,VWS V14.01,2013-03-07 01:00:00,
2013-03-06 17:05:00,52.8,43.7,30.00,WSW,256,0.0,4.0,71,0.00,,---,0.55,VWS V14.01,2013-03-07 01:05:00,
2013-03-06 17:10:00,52.6,43.8,30.00,WSW,250,0.0,4.0,72,0.00,,---,0.55,VWS V14.01,2013-03-07 01:10:00,
2013-03-06 17:15:00,52.5,44.1,30.00,West,260,0.0,5.0,73,0.00,,---,0.55,VWS V14.01,2013-03-07 01:15:00,
2013-03-06 17:20:00,52.2,43.8,30.00,WSW,241,0.0,7.0,73,0.00,,---,0.55,VWS V14.01,2013-03-07 01:20:00,
2013-03-06 17:25:00,52.0,44.0,30.00,West,261,3.0,7.0,74,0.00,,---,0.55,VWS V14.01,2013-03-07 01:25:00,
2013-03-06 17:30:00,51.7,43.7,30.00,WSW,252,3.0,7.0,74,0.00,,---,0.55,VWS V14.01,2013-03-07 01:30:00,
2013-03-06 17:35:00,51.7,44.0,29.99,West,273,0.0,5.0,75,0.00,,---,0.55,VWS V14.01,2013-03-07 01:35:00,
2013-03-06 17:40:00,51.6,44.6,29.99,West,272,0.0,5.0,77,0.00,,---,0.55,VWS V14.01,2013-03-07 01:40:00,
2013-03-06 17:45:00,51.4,44.4,29.99,West,261,4.0,5.0,77,0.00,,---,0.55,VWS V14.01,2013-03-07 01:45:00,
2013-03-06 17:50:00,51.3,44.7,29.99,SW,232,0.0,5.0,78,0.00,,---,0.55,VWS V14.01,2013-03-07 01:50:00,
2013-03-06 17:55:00,51.1,44.8,29.99,WSW,243,0.0,5.0,79,0.00,,---,0.55,VWS V14.01,2013-03-07 01:55:00,
2013-03-06 18:00:00,51.0,45.1,29.99,West,261,3.0,8.0,80,0.00,,---,0.55,VWS V14.01,2013-03-07 02:00:00,
2013-03-06 18:06:00,50.8,44.9,29.99,SW,234,0.0,7.0,80,0.00,,---,0.55,VWS V14.01,2013-03-07 02:06:00,
2013-03-06 18:11:00,50.7,45.1,29.99,SW,233,0.0,7.0,81,0.00,,---,0.55,VWS V14.01,2013-03-07 02:11:00,
2013-03-06 18:16:00,50.5,44.9,29.99,WSW,241,0.0,7.0,81,0.00,,---,0.55,VWS V14.01,2013-03-07 02:16:00,
2013-03-06 18:21:00,50.5,45.2,29.99,WSW,248,2.0,7.0,82,0.00,,---,0.55,VWS V14.01,2013-03-07 02:21:00,
2013-03-06 18:26:00,50.5,45.2,29.99,SW,236,2.0,7.0,82,0.00,,---,0.55,VWS V14.01,2013-03-07 02:26:00,
2013-03-06 18:31:00,50.4,45.4,29.99,SW,217,5.0,7.0,83,0.00,,---,0.55,VWS V14.01,2013-03-07 02:31:00,
2013-03-06 18:36:00,50.4,45.4,29.99,SW,233,4.0,5.0,83,0.00,,---,0.55,VWS V14.01,2013-03-07 02:36:00,
2013-03-06 18:41:00,50.2,45.2,29.99,WSW,238,3.0,5.0,83,0.00,,---,0.55,VWS V14.01,2013-03-07 02:41:00,
2013-03-06 18:46:00,50.1,45.2,29.99,WSW,238,0.0,6.0,83,0.00,,---,0.55,VWS V14.01,2013-03-07 02:46:00,
2013-03-06 18:51:00,49.9,45.3,29.99,WSW,239,0.0,6.0,84,0.00,,---,0.55,VWS V14.01,2013-03-07 02:51:00,
2013-03-06 18:56:00,49.9,45.3,29.99,WSW,248,0.0,7.0,84,0.00,,---,0.55,VWS V14.01,2013-03-07 02:56:00,
2013-03-06 19:01:00,49.8,45.2,29.99,WSW,248,0.0,7.0,84,0.00,,---,0.55,VWS V14.01,2013-03-07 03:01:00,
2013-03-06 19:06:00,49.8,45.2,29.99,WSW,248,0.0,3.0,84,0.00,,---,0.55,VWS V14.01,2013-03-07 03:06:00,
2013-03-06 19:11:00,49.6,45.0,29.99,WSW,248,0.0,4.0,84,0.00,,---,0.55,VWS V14.01,2013-03-07 03:11:00,
2013-03-06 19:16:00,49.5,44.9,29.99,WSW,248,0.0,4.0,84,0.00,,---,0.55,VWS V14.01,2013-03-07 03:16:00,
2013-03-06 19:21:00,49.4,45.1,29.99,WSW,248,2.0,4.0,85,0.00,,---,0.55,VWS V14.01,2013-03-07 03:21:00,
2013-03-06 19:26:00,49.4,44.8,29.99,WSW,248,0.0,5.0,84,0.00,,---,0.55,VWS V14.01,2013-03-07 03:26:00,
2013-03-06 19:31:00,49.2,44.6,29.99,SW,217,2.0,6.0,84,0.00,,---,0.55,VWS V14.01,2013-03-07 03:31:00,
2013-03-06 19:36:00,49.2,44.9,29.99,SW,225,0.0,4.0,85,0.00,,---,0.55,VWS V14.01,2013-03-07 03:36:00,
2013-03-06 19:41:00,49.1,44.5,29.99,SW,215,0.0,4.0,84,0.00,,---,0.55,VWS V14.01,2013-03-07 03:41:00,
2013-03-06 19:46:00,49.1,44.8,29.99,SW,215,0.0,4.0,85,0.00,,---,0.55,VWS V14.01,2013-03-07 03:46:00,
2013-03-06 19:51:00,49.1,44.8,29.99,SW,215,0.0,4.0,85,0.00,,---,0.55,VWS V14.01,2013-03-07 03:51:00,
2013-03-06 19:56:00,48.9,44.6,29.99,SW,218,0.0,4.0,85,0.00,,---,0.55,VWS V14.01,2013-03-07 03:56:00,
2013-03-06 20:01:00,48.9,44.6,29.99,SW,218,0.0,4.0,85,0.00,,---,0.55,VWS V14.01,2013-03-07 04:01:00,
2013-03-06 20:06:00,48.8,44.5,29.99,SW,218,0.0,2.0,85,0.00,,---,0.55,VWS V14.01,2013-03-07 04:06:00,
2013-03-06 20:11:00,48.8,44.5,29.99,SW,218,0.0,3.0,85,0.00,,---,0.55,VWS V14.01,2013-03-07 04:11:00,
2013-03-06 20:16:00,48.6,44.6,29.99,SW,218,0.0,3.0,86,0.00,,---,0.55,VWS V14.01,2013-03-07 04:16:00,
2013-03-06 20:21:00,48.6,44.6,29.99,SW,218,0.0,3.0,86,0.00,,---,0.55,VWS V14.01,2013-03-07 04:21:00,
2013-03-06 20:26:00,48.5,44.5,29.99,SW,218,0.0,3.0,86,0.00,,---,0.55,VWS V14.01,2013-03-07 04:26:00,
2013-03-06 20:32:00,48.3,44.3,29.99,SW,218,0.0,3.0,86,0.00,,---,0.55,VWS V14.01,2013-03-07 04:32:00,
2013-03-06 20:37:00,48.2,44.2,29.99,SW,218,0.0,0.0,86,0.00,,---,0.55,VWS V14.01,2013-03-07 04:37:00,
2013-03-06 20:42:00,47.7,43.7,29.99,SW,218,0.0,0.0,86,0.00,,---,0.55,VWS V14.01,2013-03-07 04:42:00,
2013-03-06 20:47:00,47.3,43.3,29.99,SW,218,0.0,0.0,86,0.00,,---,0.55,VWS V14.01,2013-03-07 04:47:00,
2013-03-06 20:52:00,47.0,43.3,29.99,SW,218,0.0,0.0,87,0.00,,---,0.55,VWS V14.01,2013-03-07 04:52:00,
2013-03-06 20:57:00,46.5,43.1,29.99,SW,218,0.0,0.0,88,0.00,,---,0.55,VWS V14.01,2013-03-07 04:57:00,
2013-03-06 21:00:00,46.4,43.0,29.99,SW,218,0.0,0.0,88,0.00,,---,0.55,VWS V14.01,2013-03-07 05:00:00,
2013-03-06 21:05:00,46.2,43.1,29.99,SW,218,0.0,0.0,89,0.00,,---,0.55,VWS V14.01,2013-03-07 05:05:00,
2013-03-06 21:10:00,46.2,43.4,29.99,SW,218,0.0,0.0,90,0.00,,---,0.55,VWS V14.01,2013-03-07 05:10:00,
2013-03-06 21:15:00,46.2,43.4,29.99,SW,218,0.0,0.0,90,0.00,,---,0.55,VWS V14.01,2013-03-07 05:15:00,
2013-03-06 21:21:00,46.2,43.4,29.99,SW,218,0.0,0.0,90,0.00,,---,0.55,VWS V14.01,2013-03-07 05:21:00,
2013-03-06 21:26:00,46.2,43.7,29.99,SW,218,0.0,0.0,91,0.00,,---,0.55,VWS V14.01,2013-03-07 05:26:00,
2013-03-06 21:31:00,46.2,43.7,29.99,SW,218,0.0,0.0,91,0.00,,---,0.55,VWS V14.01,2013-03-07 05:31:00,
2013-03-06 21:36:00,46.0,43.5,29.99,SW,218,0.0,0.0,91,0.00,,---,0.55,VWS V14.01,2013-03-07 05:36:00,
2013-03-06 21:41:00,45.8,43.3,29.99,SW,218,0.0,0.0,91,0.00,,---,0.55,VWS V14.01,2013-03-07 05:41:00,
2013-03-06 21:46:00,45.7,43.2,29.99,SW,218,0.0,0.0,91,0.00,,---,0.55,VWS V14.01,2013-03-07 05:46:00,
2013-03-06 21:51:00,45.7,43.5,29.99,SW,218,0.0,0.0,92,0.00,,---,0.55,VWS V14.01,2013-03-07 05:51:00,
2013-03-06 21:56:00,45.7,43.5,29.99,SW,218,0.0,0.0,92,0.00,,---,0.55,VWS V14.01,2013-03-07 05:56:00,
2013-03-06 22:01:00,45.7,43.5,29.99,SW,218,0.0,0.0,92,0.00,,---,0.55,VWS V14.01,2013-03-07 06:01:00,
2013-03-06 22:06:00,45.7,43.5,29.99,SW,218,0.0,0.0,92,0.00,,---,0.55,VWS V14.01,2013-03-07 06:06:00,
2013-03-06 22:11:00,45.5,43.3,29.99,SW,218,0.0,0.0,92,0.00,,---,0.55,VWS V14.01,2013-03-07 06:11:00,
2013-03-06 22:16:00,45.4,43.2,29.99,SW,218,0.0,0.0,92,0.00,,---,0.55,VWS V14.01,2013-03-07 06:16:00,
2013-03-06 22:21:00,45.1,42.9,29.99,SW,218,0.0,0.0,92,0.00,,---,0.55,VWS V14.01,2013-03-07 06:21:00,
2013-03-06 22:26:00,44.8,42.6,29.99,SW,218,0.0,0.0,92,0.00,,---,0.55,VWS V14.01,2013-03-07 06:26:00,
2013-03-06 22:31:00,44.6,42.4,29.99,SW,218,0.0,0.0,92,0.00,,---,0.55,VWS V14.01,2013-03-07 06:31:00,
2013-03-06 22:36:00,44.6,43.0,29.98,SW,218,0.0,-999.0,93,-99.99,,,0.55,weatherlink.com 1.10,2013-03-07 06:36:00,
2013-03-06 22:41:00,44.5,42.6,29.98,SW,218,0.0,0.0,93,0.00,,---,0.55,VWS V14.01,2013-03-07 06:41:00,
2013-03-06 22:46:00,44.3,42.4,29.98,SW,218,0.0,0.0,93,0.00,,---,0.55,VWS V14.01,2013-03-07 06:46:00,
2013-03-06 22:51:00,44.3,42.4,29.98,SW,218,0.0,0.0,93,0.00,,---,0.55,VWS V14.01,2013-03-07 06:51:00,
2013-03-06 22:56:00,44.2,42.3,29.98,SW,218,0.0,0.0,93,0.00,,---,0.55,VWS V14.01,2013-03-07 06:56:00,
2013-03-06 23:01:00,44.2,42.3,29.98,SW,218,0.0,0.0,93,0.00,,---,0.55,VWS V14.01,2013-03-07 07:01:00,
2013-03-06 23:06:00,44.1,42.2,29.98,SW,218,0.0,0.0,93,0.00,,---,0.55,VWS V14.01,2013-03-07 07:06:00,
2013-03-06 23:11:00,43.9,42.0,29.98,SW,218,0.0,0.0,93,0.00,,---,0.55,VWS V14.01,2013-03-07 07:11:00,
2013-03-06 23:16:00,43.8,41.9,29.98,SW,218,0.0,0.0,93,0.00,,---,0.55,VWS V14.01,2013-03-07 07:16:00,
2013-03-06 23:21:00,43.6,42.0,29.97,SW,218,0.0,0.0,94,0.00,,---,0.55,VWS V14.01,2013-03-07 07:21:00,
2013-03-06 23:26:00,43.5,41.9,29.97,SW,218,0.0,0.0,94,0.00,,---,0.55,VWS V14.01,2013-03-07 07:26:00,
2013-03-06 23:31:00,43.5,41.9,29.97,SW,218,0.0,0.0,94,0.00,,---,0.55,VWS V14.01,2013-03-07 07:31:00,
2013-03-06 23:36:00,43.5,41.9,29.97,SW,218,0.0,0.0,94,0.00,,---,0.55,VWS V14.01,2013-03-07 07:36:00,
2013-03-06 23:41:00,43.6,42.0,29.97,SW,218,0.0,-999.0,94,-99.99,,,0.55,weatherlink.com 1.10,2013-03-07 07:41:00,
2013-03-06 23:46:00,43.8,42.5,29.97,SW,218,0.0,0.0,95,0.00,,---,0.55,VWS V14.01,2013-03-07 07:46:00,
2013-03-06 23:51:00,43.9,42.6,29.97,SW,218,0.0,0.0,95,0.00,,---,0.55,VWS V14.01,2013-03-07 07:51:00,
2013-03-06 23:56:00,43.9,42.6,29.97,SW,218,0.0,0.0,95,0.00,,---,0.55,VWS V14.01,2013-03-07 07:56:00,